QPF
0.02 0.02 0.01 0.01 0.00 0.00 0.00 0.00 0.01 0.00 0.00 0.00 0.00 0.00 0.00 0.00 0.00 0.00 0.00 0.00 0.00 0.00 0.00 0.00 0.00 0.00 0.00 0.00 0.00 0.00 0.00 0.00 0.00 0.00 0.00 0.00 0.00 0.01 0.01 0.01 0.01 0.01 0.01
0.01 0.01 0.01 0.00 0.00 0.00 0.00 0.00 0.00 0.00 0.00 0.00 0.00 0.00 0.00 0.00 0.00 0.00 0.00 0.00 0.00 0.00 0.00 0.00 0.00 0.00 0.00 0.00 0.00 0.00 0.00 0.01 0.01 0.01 0.00 0.00 0.01 0.01 0.02 0.02 0.01 0.01 0.01
0.00 0.00 0.00 0.00 0.00 0.00 0.00 0.00 0.00 0.00 0.00 0.00 0.00 0.00 0.00 0.00 0.00 0.00 0.00 0.00 0.00 0.00 0.00 0.00 0.00 0.00 0.00 0.01 0.01 0.01 0.01 0.01 0.01 0.02 0.01 0.01 0.01 0.01 0.02 0.02 0.02 0.02 0.01
0.01 0.01 0.01 0.01 0.01 0.00 0.00 0.00 0.00 0.00 0.00 0.00 0.00 0.00 0.00 0.00 0.00 0.00 0.00 0.00 0.00 0.00 0.00 0.00 0.00 0.00 0.01 0.01 0.01 0.01 0.01 0.01 0.02 0.02 0.01 0.01 0.01 0.01 0.02 0.03 0.02 0.02 0.02
0.01 0.01 0.01 0.01 0.00 0.00 0.00 0.00 0.00 0.00 0.00 0.00 0.00 0.00 0.00 0.00 0.00 0.00 0.00 0.00 0.00 0.00 0.00 0.00 0.01 0.01 0.00 0.00 0.00 0.00 0.01 0.02 0.02 0.02 0.02 0.01 0.01 0.02 0.03 0.03 0.03 0.02 0.02
0.00 0.00 0.00 0.00 0.00 0.00 0.00 0.00 0.00 0.00 0.00 0.00 0.00 0.00 0.00 0.00 0.00 0.00 0.00 0.00 0.00 0.01 0.01 0.01 0.01 0.01 0.00 0.00 0.01 0.01 0.01 0.02 0.03 0.03 0.03 0.03 0.03 0.04 0.04 0.04 0.04 0.04 0.03
0.01 0.01 0.01 0.00 0.00 0.00 0.00 0.01 0.01 0.01 0.01 0.01 0.01 0.01 0.01 0.00 0.00 0.00 0.00 0.00 0.00 0.01 0.01 0.01 0.01 0.01 0.01 0.01 0.01 0.01 0.01 0.01 0.02 0.04 0.04 0.04 0.05 0.05 0.05 0.04 0.04 0.05 0.04
0.02 0.01 0.01 0.01 0.01 0.01 0.01 0.01 0.01 0.01 0.01 0.01 0.01 0.01 0.01 0.00 0.00 0.00 0.00 0.00 0.01 0.01 0.01 0.01 0.01 0.01 0.02 0.00 0.00 0.00 0.01 0.02 0.03 0.04 0.05 0.05 0.04 0.04 0.04 0.04 0.04 0.04 0.03
0.01 0.01 0.01 0.01 0.01 0.02 0.02 0.02 0.02 0.01 0.01 0.01 0.01 0.01 0.02 0.01 0.00 0.00 0.00 0.00 0.00 0.00 0.01 0.01 0.01 0.01 0.01 0.00 0.00 0.01 0.01 0.02 0.02 0.01 0.01 0.02 0.03 0.03 0.03 0.03 0.04 0.05 0.04
0.01 0.01 0.01 0.02 0.02 0.02 0.01 0.01 0.01 0.01 0.01 0.01 0.01 0.01 0.02 0.02 0.00 0.00 0.00 0.00 0.00 0.00 0.00 0.01 0.01 0.00 0.00 0.00 0.00 0.01 0.01 0.02 0.01 0.02 0.04 0.06 0.07 0.06 0.04 0.04 0.06 0.06 0.06
0.02 0.02 0.02 0.02 0.01 0.01 0.01 0.01 0.01 0.01 0.02 0.02 0.02 0.03 0.03 0.02 0.00 0.00 0.00 0.00 0.00 0.00 0.01 0.01 0.02 0.00 0.00 0.00 0.00 0.01 0.02 0.01 0.01 0.04 0.07 0.07 0.06 0.05 0.05 0.05 0.06 0.07 0.06
0.03 0.03 0.02 0.01 0.01 0.01 0.01 0.02 0.02 0.03 0.03 0.03 0.03 0.03 0.03 0.02 0.01 0.00 0.00 0.00 0.00 0.01 0.02 0.02 0.02 0.00 0.00 0.00 0.00 0.01 0.00 0.01 0.05 0.08 0.08 0.06 0.05 0.04 0.04 0.04 0.04 0.05 0.05
0.04 0.04 0.02 0.01 0.01 0.01 0.01 0.02 0.02 0.03 0.03 0.03 0.03 0.03 0.03 0.03 0.02 0.00 0.00 0.00 0.00 0.01 0.02 0.01 0.00 0.00 0.00 0.02 0.02 0.00 0.02 0.07 0.08 0.08 0.07 0.06 0.05 0.04 0.04 0.03 0.03 0.03 0.03
0.04 0.03 0.02 0.02 0.02 0.01 0.01 0.01 0.01 0.02 0.02 0.02 0.03 0.02 0.03 0.03 0.01 0.00 0.00 0.01 0.01 0.01 0.01 0.01 0.01 0.01 0.02 0.03 0.04 0.06 0.09 0.09 0.06 0.07 0.07 0.06 0.05 0.04 0.03 0.03 0.02 0.02 0.02
0.04 0.02 0.02 0.03 0.03 0.02 0.03 0.02 0.01 0.01 0.00 0.00 0.01 0.01 0.01 0.01 0.01 0.00 0.00 0.00 0.00 0.00 0.00 0.01 0.04 0.04 0.04 0.04 0.04 0.05 0.06 0.06 0.06 0.07 0.06 0.05 0.04 0.03 0.03 0.02 0.02 0.02 0.02
0.03 0.01 0.01 0.02 0.02 0.02 0.03 0.04 0.01 0.00 0.00 0.00 0.00 0.00 0.00 0.00 0.00 0.00 0.00 0.00 0.00 0.00 0.01 0.02 0.03 0.02 0.02 0.03 0.03 0.03 0.04 0.05 0.06 0.06 0.06 0.05 0.04 0.03 0.03 0.02 0.02 0.02 0.02
0.01 0.01 0.01 0.01 0.01 0.01 0.02 0.04 0.06 0.03 0.00 0.00 0.00 0.00 0.00 0.00 0.00 0.00 0.00 0.01 0.01 0.01 0.02 0.03 0.03 0.02 0.03 0.03 0.03 0.03 0.04 0.05 0.06 0.06 0.05 0.05 0.04 0.03 0.02 0.02 0.01 0.01 0.02
0.00 0.00 0.00 0.01 0.00 0.00 0.00 0.01 0.04 0.06 0.05 0.04 0.01 0.00 0.00 0.00 0.00 0.00 0.01 0.02 0.03 0.03 0.03 0.03 0.03 0.03 0.04 0.04 0.04 0.04 0.04 0.05 0.05 0.04 0.04 0.03 0.03 0.02 0.02 0.01 0.01 0.01 0.02
0.00 0.01 0.01 0.00 0.00 0.00 0.00 0.01 0.02 0.03 0.05 0.06 0.04 0.02 0.01 0.01 0.02 0.02 0.02 0.02 0.02 0.03 0.03 0.02 0.03 0.04 0.04 0.05 0.06 0.06 0.05 0.04 0.04 0.03 0.02 0.02 0.02 0.01 0.01 0.01 0.01 0.01 0.01
0.01 0.01 0.00 0.00 0.00 0.00 0.00 0.00 0.01 0.02 0.03 0.03 0.02 0.01 0.01 0.02 0.03 0.03 0.03 0.03 0.03 0.02 0.02 0.02 0.03 0.04 0.05 0.05 0.04 0.04 0.03 0.03 0.02 0.02 0.02 0.02 0.01 0.01 0.01 0.01 0.01 0.01 0.01
0.00 0.00 0.00 0.00 0.00 0.00 0.00 0.00 0.00 0.01 0.01 0.02 0.01 0.00 0.01 0.02 0.03 0.04 0.04 0.03 0.02 0.01 0.01 0.02 0.03 0.05 0.04 0.03 0.02 0.01 0.01 0.01 0.02 0.02 0.01 0.01 0.01 0.00 0.00 0.00 0.00 0.00 0.01
0.00 0.00 0.00 0.00 0.00 0.00 0.00 0.00 0.00 0.00 0.01 0.01 0.01 0.01 0.01 0.02 0.03 0.03 0.03 0.02 0.01 0.01 0.02 0.02 0.03 0.04 0.03 0.02 0.01 0.01 0.00 0.00 0.01 0.02 0.02 0.01 0.01 0.00 0.00 0.00 0.00 0.00 0.00
0.00 0.00 0.00 0.00 0.00 0.00 0.00 0.00 0.00 0.00 0.01 0.01 0.01 0.01 0.01 0.02 0.02 0.02 0.01 0.01 0.01 0.02 0.02 0.03 0.03 0.03 0.02 0.01 0.01 0.00 0.00 0.00 0.01 0.02 0.02 0.02 0.01 0.01 0.01 0.01 0.01 0.00 0.00
0.00 0.00 0.00 0.00 0.00 0.00 0.00 0.00 0.00 0.00 0.00 0.01 0.01 0.01 0.02 0.02 0.01 0.02 0.02 0.02 0.02 0.02 0.03 0.03 0.03 0.02 0.01 0.01 0.00 0.00 0.00 0.00 0.00 0.01 0.02 0.03 0.02 0.01 0.01 0.01 0.01 0.01 0.01
0.00 0.00 0.00 0.00 0.00 0.00 0.00 0.00 0.00 0.00 0.00 0.00 0.01 0.01 0.01 0.01 0.01 0.01 0.02 0.02 0.02 0.02 0.02 0.02 0.02 0.01 0.00 0.00 0.00 0.00 0.00 0.00 0.00 0.00 0.01 0.02 0.01 0.01 0.01 0.01 0.01 0.01 0.02
0.00 0.00 0.00 0.00 0.00 0.00 0.00 0.00 0.00 0.00 0.00 0.00 0.00 0.01 0.01 0.01 0.01 0.01 0.02 0.01 0.01 0.01 0.01 0.01 0.00 0.00 0.00 0.00 0.00 0.00 0.00 0.00 0.00 0.00 0.01 0.00 0.00 0.00 0.00 0.01 0.01 0.01 0.02
MSLP
1015.47 1016.17 1016.91 1017.61 1018.23 1018.73 1019.12 1019.43 1019.68 1019.91 1020.14 1020.39 1020.63 1020.87 1021.08 1021.24 1021.35 1021.43 1021.48 1021.53 1021.61 1021.71 1021.85 1022.02 1022.18 1022.31 1022.37 1022.35 1022.23 1022.03 1021.74 1021.41 1021.05 1020.69 1020.34 1020.01 1019.69 1019.38 1019.05 1018.70 1018.33 1017.93 1017.50
1016.35 1017.01 1017.68 1018.29 1018.80 1019.20 1019.51 1019.75 1019.97 1020.18 1020.41 1020.68 1020.96 1021.23 1021.48 1021.67 1021.81 1021.88 1021.92 1021.93 1021.94 1021.98 1022.05 1022.13 1022.23 1022.32 1022.36 1022.34 1022.25 1022.08 1021.84 1021.54 1021.21 1020.85 1020.48 1020.11 1019.73 1019.35 1018.94 1018.51 1018.05 1017.57 1017.07
1017.26 1017.87 1018.46 1018.97 1019.39 1019.70 1019.94 1020.13 1020.32 1020.53 1020.78 1021.07 1021.39 1021.70 1021.98 1022.21 1022.35 1022.42 1022.42 1022.38 1022.33 1022.29 1022.26 1022.27 1022.30 1022.33 1022.34 1022.32 1022.24 1022.10 1021.89 1021.62 1021.30 1020.94 1020.56 1020.15 1019.71 1019.26 1018.78 1018.28 1017.75 1017.21 1016.65
1018.21 1018.77 1019.27 1019.70 1020.02 1020.26 1020.44 1020.59 1020.77 1020.98 1021.25 1021.58 1021.93 1022.28 1022.58 1022.81 1022.96 1023.00 1022.97 1022.87 1022.75 1022.62 1022.51 1022.43 1022.39 1022.36 1022.34 1022.30 1022.22 1022.08 1021.89 1021.63 1021.31 1020.94 1020.53 1020.08 1019.59 1019.08 1018.55 1017.99 1017.42 1016.83 1016.24
1019.22 1019.70 1020.13 1020.46 1020.70 1020.87 1021.00 1021.13 1021.30 1021.52 1021.81 1022.16 1022.53 1022.89 1023.20 1023.43 1023.55 1023.57 1023.49 1023.33 1023.14 1022.94 1022.75 1022.60 1022.49 1022.41 1022.34 1022.27 1022.17 1022.02 1021.82 1021.55 1021.21 1020.81 1020.36 1019.86 1019.33 1018.78 1018.20 1017.62 1017.02 1016.42 1015.82
1020.24 1020.65 1020.98 1021.23 1021.40 1021.51 1021.60 1021.71 1021.86 1022.09 1022.39 1022.73 1023.11 1023.46 1023.76 1023.96 1024.06 1024.04 1023.91 1023.71 1023.46 1023.20 1022.95 1022.74 1022.57 1022.43 1022.32 1022.20 1022.06 1021.88 1021.64 1021.33 1020.96 1020.52 1020.02 1019.49 1018.92 1018.34 1017.74 1017.15 1016.57 1015.98 1015.40
1021.21 1021.55 1021.80 1021.96 1022.06 1022.11 1022.16 1022.25 1022.39 1022.60 1022.89 1023.22 1023.57 1023.90 1024.16 1024.33 1024.39 1024.33 1024.17 1023.94 1023.66 1023.36 1023.07 1022.82 1022.60 1022.41 1022.23 1022.06 1021.86 1021.62 1021.32 1020.96 1020.54 1020.05 1019.52 1018.95 1018.37 1017.78 1017.19 1016.62 1016.07 1015.53 1014.99
1022.07 1022.33 1022.50 1022.59 1022.62 1022.62 1022.63 1022.69 1022.80 1022.99 1023.25 1023.55 1023.86 1024.14 1024.36 1024.49 1024.51 1024.43 1024.26 1024.01 1023.71 1023.40 1023.09 1022.81 1022.55 1022.31 1022.08 1021.83 1021.56 1021.25 1020.88 1020.45 1019.97 1019.44 1018.88 1018.30 1017.73 1017.15 1016.61 1016.08 1015.58 1015.10 1014.63
1022.75 1022.93 1023.03 1023.05 1023.03 1022.99 1022.97 1022.99 1023.07 1023.23 1023.45 1023.70 1023.96 1024.19 1024.37 1024.46 1024.46 1024.36 1024.18 1023.94 1023.65 1023.35 1023.03 1022.73 1022.44 1022.14 1021.85 1021.53 1021.17 1020.78 1020.33 1019.85 1019.32 1018.76 1018.19 1017.63 1017.08 1016.55 1016.06 1015.60 1015.18 1014.77 1014.36
1023.21 1023.33 1023.37 1023.35 1023.28 1023.21 1023.15 1023.15 1023.21 1023.33 1023.50 1023.71 1023.92 1024.11 1024.24 1024.31 1024.29 1024.20 1024.03 1023.81 1023.54 1023.24 1022.93 1022.61 1022.28 1021.93 1021.57 1021.17 1020.73 1020.26 1019.75 1019.21 1018.65 1018.09 1017.53 1017.00 1016.51 1016.05 1015.63 1015.25 1014.90 1014.56 1014.21
1023.45 1023.53 1023.53 1023.47 1023.38 1023.29 1023.22 1023.20 1023.24 1023.33 1023.48 1023.65 1023.82 1023.98 1024.09 1024.14 1024.13 1024.04 1023.89 1023.69 1023.44 1023.15 1022.83 1022.49 1022.11 1021.71 1021.27 1020.79 1020.28 1019.73 1019.17 1018.60 1018.04 1017.49 1016.98 1016.51 1016.08 1015.71 1015.37 1015.07 1014.79 1014.50 1014.19
1023.50 1023.54 1023.52 1023.45 1023.35 1023.26 1023.20 1023.19 1023.22 1023.31 1023.45 1023.60 1023.76 1023.90 1024.01 1024.06 1024.05 1023.98 1023.84 1023.65 1023.41 1023.11 1022.77 1022.39 1021.96 1021.49 1020.97 1020.42 1019.84 1019.25 1018.65 1018.07 1017.53 1017.02 1016.57 1016.17 1015.83 1015.54 1015.29 1015.05 1014.82 1014.58 1014.29
1023.39 1023.41 1023.38 1023.32 1023.24 1023.17 1023.14 1023.15 1023.21 1023.32 1023.46 1023.63 1023.80 1023.94 1024.05 1024.11 1024.11 1024.05 1023.92 1023.72 1023.46 1023.14 1022.75 1022.31 1021.82 1021.27 1020.69 1020.07 1019.44 1018.81 1018.21 1017.64 1017.13 1016.68 1016.30 1015.98 1015.73 1015.51 1015.33 1015.15 1014.96 1014.73 1014.46
1023.17 1023.19 1023.17 1023.13 1023.08 1023.05 1023.06 1023.12 1023.22 1023.37 1023.56 1023.76 1023.95 1024.12 1024.24 1024.31 1024.31 1024.24 1024.10 1023.87 1023.57 1023.19 1022.74 1022.23 1021.66 1021.04 1020.39 1019.72 1019.06 1018.42 1017.83 1017.29 1016.83 1016.44 1016.13 1015.89 1015.71 1015.56 1015.42 1015.28 1015.11 1014.90 1014.63
1022.90 1022.91 1022.90 1022.89 1022.89 1022.91 1022.98 1023.09 1023.26 1023.47 1023.70 1023.95 1024.18 1024.38 1024.52 1024.60 1024.60 1024.50 1024.32 1024.04 1023.68 1023.23 1022.70 1022.11 1021.46 1020.77 1020.07 1019.37 1018.69 1018.06 1017.49 1017.00 1016.59 1016.27 1016.02 1015.84 1015.70 1015.59 1015.49 1015.37 1015.21 1015.00 1014.73
1022.60 1022.61 1022.62 1022.63 1022.67 1022.74 1022.87 1023.05 1023.28 1023.55 1023.85 1024.15 1024.42 1024.65 1024.81 1024.89 1024.87 1024.74 1024.50 1024.16 1023.72 1023.19 1022.58 1021.91 1021.19 1020.46 1019.72 1019.01 1018.34 1017.73 1017.20 1016.75 1016.39 1016.12 1015.91 1015.76 1015.65 1015.55 1015.45 1015.33 1015.17 1014.97 1014.71
1022.31 1022.32 1022.33 1022.36 1022.43 1022.55 1022.73 1022.96 1023.25 1023.59 1023.94 1024.29 1024.60 1024.85 1025.02 1025.09 1025.05 1024.88 1024.58 1024.17 1023.65 1023.05 1022.37 1021.63 1020.87 1020.11 1019.37 1018.67 1018.02 1017.45 1016.96 1016.56 1016.23 1015.98 1015.79 1015.65 1015.52 1015.41 1015.29 1015.16 1014.99 1014.79 1014.55
1022.06 1022.06 1022.06 1022.10 1022.19 1022.33 1022.54 1022.82 1023.16 1023.53 1023.93 1024.32 1024.66 1024.93 1025.11 1025.16 1025.09 1024.88 1024.53 1024.06 1023.49 1022.82 1022.09 1021.33 1020.55 1019.79 1019.07 1018.40 1017.80 1017.27 1016.82 1016.45 1016.14 1015.89 1015.69 1015.51 1015.35 1015.20 1015.04 1014.87 1014.69 1014.49 1014.27
1021.88 1021.85 1021.84 1021.87 1021.95 1022.11 1022.33 1022.63 1023.00 1023.40 1023.83 1024.24 1024.60 1024.88 1025.05 1025.09 1025.00 1024.76 1024.38 1023.87 1023.26 1022.57 1021.83 1021.06 1020.30 1019.57 1018.89 1018.27 1017.72 1017.24 1016.83 1016.47 1016.16 1015.89 1015.65 1015.41 1015.19 1014.97 1014.75 1014.53 1014.32 1014.11 1013.92
1021.78 1021.72 1021.68 1021.69 1021.76 1021.91 1022.14 1022.44 1022.81 1023.22 1023.65 1024.07 1024.44 1024.72 1024.89 1024.93 1024.82 1024.57 1024.18 1023.66 1023.05 1022.36 1021.64 1020.91 1020.20 1019.52 1018.90 1018.34 1017.85 1017.41 1017.02 1016.67 1016.34 1016.02 1015.71 1015.40 1015.09 1014.78 1014.49 1014.21 1013.96 1013.74 1013.56
1021.77 1021.68 1021.62 1021.60 1021.65 1021.78 1021.99 1022.28 1022.64 1023.05 1023.48 1023.89 1024.25 1024.53 1024.70 1024.74 1024.64 1024.39 1024.01 1023.51 1022.93 1022.28 1021.61 1020.93 1020.29 1019.68 1019.13 1018.63 1018.19 1017.78 1017.41 1017.04 1016.68 1016.30 1015.92 1015.52 1015.11 1014.71 1014.33 1013.99 1013.69 1013.44 1013.26
1021.86 1021.74 1021.65 1021.61 1021.64 1021.75 1021.94 1022.21 1022.55 1022.94 1023.35 1023.75 1024.11 1024.38 1024.55 1024.60 1024.51 1024.28 1023.93 1023.48 1022.94 1022.36 1021.75 1021.15 1020.58 1020.05 1019.56 1019.12 1018.71 1018.33 1017.95 1017.56 1017.15 1016.72 1016.25 1015.77 1015.27 1014.78 1014.32 1013.91 1013.56 1013.28 1013.08
1022.02 1021.89 1021.78 1021.73 1021.74 1021.84 1022.01 1022.26 1022.58 1022.94 1023.33 1023.71 1024.05 1024.32 1024.50 1024.55 1024.49 1024.30 1023.99 1023.59 1023.12 1022.60 1022.07 1021.54 1021.04 1020.57 1020.13 1019.73 1019.35 1018.97 1018.58 1018.16 1017.71 1017.22 1016.69 1016.13 1015.56 1015.00 1014.47 1014.00 1013.60 1013.29 1013.06
1022.24 1022.10 1022.00 1021.95 1021.96 1022.04 1022.20 1022.43 1022.72 1023.06 1023.43 1023.79 1024.11 1024.37 1024.55 1024.62 1024.58 1024.43 1024.17 1023.83 1023.42 1022.97 1022.50 1022.04 1021.59 1021.17 1020.77 1020.38 1020.01 1019.62 1019.21 1018.77 1018.27 1017.73 1017.16 1016.55 1015.93 1015.33 1014.77 1014.26 1013.83 1013.48 1013.23
1022.47 1022.35 1022.27 1022.23 1022.25 1022.33 1022.48 1022.70 1022.97 1023.29 1023.62 1023.96 1024.26 1024.52 1024.69 1024.78 1024.77 1024.65 1024.45 1024.16 1023.81 1023.41 1023.00 1022.58 1022.16 1021.76 1021.38 1021.00 1020.61 1020.21 1019.78 1019.31 1018.79 1018.22 1017.62 1017.00 1016.37 1015.75 1015.18 1014.66 1014.22 1013.86 1013.59
1022.70 1022.61 1022.56 1022.55 1022.59 1022.68 1022.83 1023.03 1023.29 1023.58 1023.89 1024.20 1024.49 1024.73 1024.90 1025.00 1025.01 1024.94 1024.77 1024.53 1024.22 1023.88 1023.50 1023.11 1022.72 1022.33 1021.94 1021.54 1021.14 1020.72 1020.26 1019.77 1019.24 1018.67 1018.07 1017.45 1016.83 1016.23 1015.68 1015.18 1014.75 1014.41 1014.14
Thickness
5660 5655 5650 5645 5639 5634 5628 5621 5615 5610 5605 5600 5595 5591 5587 5583 5578 5574 5570 5566 5562 5557 5551 5547 5541 5536 5530 5524 5519 5515 5511 5507 5505 5503 5495 5490 5484 5479 5475 5470 5467 5465 5463
5645 5640 5635 5630 5624 5618 5612 5606 5601 5596 5591 5586 5582 5577 5573 5569 5563 5559 5555 5550 5546 5540 5535 5530 5525 5520 5514 5509 5504 5498 5494 5489 5485 5485 5480 5474 5469 5464 5462 5458 5456 5454 5452
5630 5624 5619 5613 5608 5602 5596 5591 5586 5581 5576 5572 5567 5563 5558 5553 5549 5543 5538 5533 5528 5523 5518 5513 5509 5504 5500 5494 5489 5484 5479 5475 5470 5467 5465 5461 5457 5453 5451 5449 5447 5445 5443
5614 5608 5602 5596 5590 5585 5580 5575 5570 5565 5560 5556 5551 5546 5542 5536 5529 5523 5519 5515 5511 5507 5502 5498 5494 5491 5486 5481 5476 5471 5467 5461 5456 5453 5452 5449 5446 5444 5442 5441 5440 5438 5437
5596 5590 5583 5578 5572 5567 5561 5556 5552 5547 5543 5538 5534 5530 5525 5516 5507 5502 5498 5497 5493 5491 5489 5486 5482 5479 5475 5469 5464 5459 5453 5449 5445 5442 5441 5440 5439 5437 5435 5433 5432 5432 5432
5577 5571 5565 5559 5554 5548 5543 5538 5534 5530 5525 5521 5517 5512 5506 5497 5488 5484 5480 5478 5477 5477 5476 5474 5470 5468 5465 5458 5453 5448 5443 5439 5437 5434 5433 5432 5433 5431 5430 5428 5425 5425 5428
5557 5551 5546 5541 5537 5532 5528 5523 5518 5513 5509 5504 5500 5494 5486 5477 5473 5469 5465 5463 5464 5465 5464 5461 5459 5457 5453 5448 5443 5440 5437 5435 5433 5430 5430 5429 5429 5427 5425 5424 5421 5420 5420
5539 5534 5529 5525 5521 5516 5512 5507 5502 5497 5493 5488 5483 5478 5471 5463 5458 5454 5451 5452 5453 5453 5451 5449 5447 5445 5442 5436 5434 5433 5432 5432 5431 5430 5429 5428 5426 5425 5422 5419 5418 5418 5419
5523 5518 5514 5510 5506 5502 5497 5492 5487 5482 5478 5474 5469 5463 5458 5450 5444 5440 5438 5439 5442 5441 5440 5439 5437 5435 5431 5428 5427 5428 5429 5430 5430 5430 5428 5427 5426 5424 5421 5418 5417 5416 5418
5510 5505 5501 5497 5492 5487 5482 5477 5471 5467 5463 5459 5454 5450 5445 5440 5432 5428 5425 5426 5427 5427 5429 5429 5429 5427 5424 5422 5422 5424 5426 5428 5429 5429 5428 5428 5426 5425 5422 5418 5415 5414 5415
5498 5493 5488 5483 5479 5473 5467 5462 5457 5453 5448 5444 5441 5437 5433 5428 5422 5417 5414 5412 5413 5414 5417 5420 5421 5420 5419 5420 5421 5422 5425 5426 5426 5427 5427 5427 5426 5424 5421 5418 5415 5413 5412
5486 5481 5477 5471 5467 5461 5455 5449 5444 5440 5437 5433 5429 5425 5421 5417 5412 5408 5405 5403 5402 5404 5408 5412 5414 5416 5418 5421 5423 5426 5427 5426 5427 5428 5428 5427 5425 5423 5420 5418 5416 5414 5412
5475 5470 5465 5459 5454 5449 5444 5439 5435 5430 5426 5423 5419 5415 5411 5407 5403 5399 5397 5396 5397 5399 5403 5406 5410 5415 5419 5424 5428 5428 5429 5429 5430 5430 5429 5427 5425 5423 5421 5419 5417 5416 5415
5464 5459 5454 5449 5444 5439 5434 5430 5425 5420 5416 5413 5409 5405 5401 5398 5393 5389 5389 5391 5394 5397 5400 5404 5410 5417 5422 5425 5428 5431 5432 5432 5432 5430 5429 5428 5426 5424 5422 5419 5418 5416 5415
5456 5451 5447 5442 5437 5432 5427 5420 5416 5408 5403 5399 5396 5393 5390 5388 5381 5379 5380 5385 5387 5392 5395 5403 5412 5418 5424 5427 5430 5433 5434 5435 5434 5432 5431 5429 5427 5425 5423 5421 5419 5418 5416
5448 5444 5441 5437 5432 5429 5423 5415 5406 5401 5395 5390 5386 5382 5381 5378 5378 5379 5382 5385 5390 5394 5398 5405 5412 5418 5423 5427 5430 5434 5435 5436 5436 5435 5434 5432 5430 5427 5425 5423 5422 5420 5418
5443 5439 5437 5434 5430 5426 5422 5417 5407 5397 5391 5387 5384 5381 5379 5378 5380 5382 5385 5389 5394 5398 5403 5409 5414 5418 5423 5428 5432 5435 5438 5439 5439 5439 5437 5435 5433 5430 5428 5426 5424 5423 5421
5441 5436 5432 5430 5428 5425 5421 5418 5413 5405 5397 5391 5385 5382 5382 5382 5384 5386 5389 5394 5400 5404 5407 5411 5415 5420 5425 5431 5435 5439 5441 5443 5443 5442 5441 5439 5436 5434 5432 5430 5428 5426 5424
5441 5436 5432 5430 5428 5425 5422 5418 5414 5408 5402 5396 5391 5388 5386 5387 5389 5391 5394 5397 5402 5406 5410 5414 5419 5424 5430 5435 5440 5443 5445 5447 5447 5446 5445 5443 5441 5439 5437 5436 5434 5430 5428
5443 5436 5432 5431 5430 5425 5422 5418 5413 5408 5403 5399 5395 5393 5392 5393 5394 5396 5398 5402 5405 5409 5414 5418 5423 5429 5435 5440 5445 5447 5449 5449 5449 5449 5449 5448 5447 5446 5444 5443 5441 5438 5435
5448 5441 5433 5433 5430 5426 5422 5418 5414 5410 5406 5402 5399 5396 5394 5396 5397 5400 5402 5405 5409 5413 5418 5422 5428 5434 5440 5444 5448 5450 5451 5450 5450 5451 5452 5452 5451 5450 5450 5448 5447 5446 5443
5448 5446 5440 5435 5430 5425 5422 5419 5416 5412 5409 5407 5405 5402 5399 5400 5402 5403 5406 5410 5413 5418 5422 5427 5432 5438 5442 5445 5448 5449 5450 5449 5449 5450 5452 5453 5454 5454 5453 5452 5451 5450 5449
5450 5447 5442 5436 5432 5424 5425 5422 5419 5416 5413 5411 5409 5406 5405 5405 5405 5407 5410 5413 5417 5422 5427 5431 5435 5439 5442 5445 5447 5447 5446 5446 5447 5449 5451 5454 5456 5456 5456 5455 5454 5453 5451
5450 5447 5443 5439 5434 5431 5428 5424 5422 5419 5416 5414 5411 5409 5407 5407 5408 5410 5413 5416 5421 5425 5430 5433 5436 5439 5441 5443 5445 5445 5445 5445 5447 5451 5453 5455 5457 5457 5457 5457 5456 5455 5454
5451 5446 5443 5439 5436 5433 5429 5426 5422 5420 5417 5415 5413 5410 5409 5409 5411 5413 5416 5419 5423 5427 5431 5434 5435 5437 5439 5441 5442 5444 5447 5450 5452 5454 5456 5459 5460 5459 5459 5459 5458 5456 5455
5450 5446 5443 5439 5436 5433 5430 5426 5423 5420 5417 5415 5412 5410 5410 5411 5413 5415 5418 5421 5425 5428 5431 5433 5434 5435 5437 5440 5442 5445 5449 5452 5455 5457 5459 5460 5461 5460 5460 5460 5460 5458 5456